Regional Weather Roundup
Issued by NWS Newport/Morehead, NC

Current Version | Previous Version | Text Only | Print | Product List | Glossary On
Versions: 1 2 3 4 5 6 7 8 9 10 11 12 13 14 15 16 17 18 19 20 21 22 23 24 25 26 27 28 29 30 31 32 33 34 35 36 37 38 39 40 41 42 43 44 45 46 47 48 49 50
000
ASUS42 KMHX 191910
RWRMHX
WEATHER ROUNDUP FOR EASTERN NORTH CAROLINA
NATIONAL WEATHER SERVICE NEWPORT/MOREHEAD CITY NC
300 PM EDT SAT APR 19 2014

NOTE: "FAIR" INDICATES FEW OR NO CLOUDS BELOW 12,000 FEET
WITH NO SIGNIFICANT WEATHER AND/OR OBSTRUCTIONS TO VISIBILITY

NCZ015>017-031-032-045>047-102-103-192000-
NORTH COAST

CITY           SKY/WX    TMP DP  RH WIND       PRES   REMARKS
EDENTON        CLOUDY    51  45  79 NE10G16   30.17F
ELIZABETH CITY CLOUDY    53  38  56 NE20G26   30.19F
KITTY HAWK     LGT RAIN  48  47  96 NE10G17   30.15F
MANTEO         LGT RAIN  49  48  95 NE20      30.16F

$$

NCZ045>047-081-094-103-104-192000-
CENTRAL COAST

CITY           SKY/WX    TMP DP  RH WIND       PRES   REMARKS
FRISCO         CLOUDY    54  51  90 NE13G28   30.09S
SWANQUARTER      N/A     52 N/A N/A NE9G31    30.09S

$$

NCZ095-097-098-100-101-192000-
SOUTHERN COAST

CITY           SKY/WX    TMP DP  RH WIND       PRES   REMARKS
BEAUFORT       CLOUDY    57  51  80 NE16G30   30.08R
CEDAR ISLAND     N/A     57 N/A N/A N30G40    30.12S
JACKSONVILLE   CLOUDY    55  54  96 NE20      30.08R
NEWPORT          N/A     55  52  88 NE10G17     N/A
PINEY ISLAND   CLOUDY    58  53  84 NE24G36   30.08R
WILMINGTON     CLOUDY    59  55  87 NE23G30   30.03R FOG


$$

NCZ011>013-027>030-043-044-078>080-089-090>093-098-192000-
COASTAL PLAIN

CITY           SKY/WX    TMP DP  RH WIND       PRES   REMARKS
AHOSKIE        CLOUDY    50  41  72 NE13G22   30.21S
CLINTON        DRIZZLE   52  51  99 NE9G22    30.11S
ELIZABETHTOWN  CLOUDY    52  52  99 NE7       30.08R
GOLDSBORO      LGT RAIN  50  49  98 NE9       30.13R
GREENVILLE     CLOUDY    50  48  93 NE13G22   30.16F
HAVELOCK       CLOUDY    55  50  83 NE23G33   30.10R
KENANSVILLE    CLOUDY    51  49  93 NE6       30.12F FOG
KINSTON        LGT RAIN  50  48  93 NE13G18   30.15R
NEW BERN       LGT RAIN  55  51  86 NE13G23   30.12S FOG
RICHLANDS      CLOUDY    54  54 100 NE15G25   30.10R
ROANOKE RAPIDS NOT AVBL
ROCKY MOUNT    CLOUDY    53  47  79 N18       30.16F
WASHINGTON     CLOUDY    50  46  85 NE10G20   30.15S
WHITEVILLE     CLOUDY    54  51  91 NE10G20   30.05R FOG

$$

AMZ130-135-150-152-154-156-158-170-250-252-270-ANZ085-086-088-633-658-670-192000-
MARINE OBSERVATIONS

STATION/POSITION TIME  TEMP    WIND        PRES    WAVE   SWELL
                       AIR SEA DIR/SP/G            HT/PER HT/PER
                 (UTC) (F)     (DEG/KT/KT) (MB)    (FT/S) (FT/S)
CHESAPEAKE LIGHT 1800   46      50/ 19/ 20 1024.0
BUOY 44014       1900   50 48   30/ 17/ 21 1021.7    7/11   5/11
DUCK             1900   49 49   40/ 20/ 22 1021.0
2E DUCK          1900      47                N/A     6/11   2/11
OREGON INLET     1900   49 51   10/ 12/ 19 1020.5
BUOY 44095       1900      48                N/A     8/11   3/11
HATTERAS CG      1900   56 56   40/ 16/ 23 1019.0
DIAMOND BUOY     NOT AVBL
CAPE LOOKOUT     1800   58      30/ 31/ 36 1016.7
BEAUFORT LAB     1900   56 58   40/ 16/ 23 1017.5
30 SE NEW RIVER  1800   62 68   50/ 31/ 39 1015.3
5 SE WRIGHTSVILL 1800   58 59   40/ 27/ 33 1015.5
FRYING PAN BUOY  1900   64 67   40/ 27/ 35 1012.5    8/ 6
BUOY 41001       NOT AVBL
BUOY 41002       NOT AVBL
BUOY 41004       NOT AVBL

$$



USA.gov is the U.S. government's official web portal to all federal, state and local government web resources and services.